Time,TemperatureF,DewpointF,PressureIn,WindDirection,WindDirectionDegrees,WindSpeedMPH,WindSpeedGustMPH,Humidity,HourlyPrecipIn,Conditions,Clouds,dailyrainin,SoftwareType,DateUTC
2013-02-19 00:08:00,48.1,46.0,30.22,SE,131,0.0,1.0,92,0.00,,,0.00,weatherlink.com 1.10,2013-02-19 05:08:00,
2013-02-19 00:23:00,47.9,46.0,30.22,SE,131,0.0,0.0,93,0.00,,,0.00,weatherlink.com 1.10,2013-02-19 05:23:00,
2013-02-19 00:38:00,47.1,46.0,30.23,SE,131,0.0,0.0,94,0.00,,,0.00,weatherlink.com 1.10,2013-02-19 05:38:00,
2013-02-19 00:53:00,47.1,46.0,30.22,SE,131,0.0,0.0,95,0.00,,,0.00,weatherlink.com 1.10,2013-02-19 05:53:00,
2013-02-19 01:08:00,46.7,45.0,30.22,SE,131,0.0,0.0,95,0.00,,,0.00,weatherlink.com 1.10,2013-02-19 06:08:00,
2013-02-19 01:23:00,46.3,45.0,30.22,SE,131,0.0,0.0,96,0.00,,,0.00,weatherlink.com 1.10,2013-02-19 06:23:00,
2013-02-19 01:38:00,46.0,45.0,30.23,SE,131,0.0,0.0,96,0.00,,,0.00,weatherlink.com 1.10,2013-02-19 06:38:00,
2013-02-19 01:53:00,46.8,46.0,30.22,SE,131,0.0,0.0,97,0.00,,,0.00,weatherlink.com 1.10,2013-02-19 06:53:00,
2013-02-19 02:08:00,46.8,46.0,30.21,SE,131,0.0,0.0,97,0.00,,,0.00,weatherlink.com 1.10,2013-02-19 07:08:00,
2013-02-19 02:23:00,45.8,45.0,30.21,SE,131,0.0,0.0,96,0.00,,,0.00,weatherlink.com 1.10,2013-02-19 07:23:00,
2013-02-19 02:38:00,45.6,45.0,30.21,SE,131,0.0,0.0,96,0.00,,,0.00,weatherlink.com 1.10,2013-02-19 07:38:00,
2013-02-19 02:54:00,45.1,44.0,30.20,SE,131,0.0,0.0,97,0.00,,,0.00,weatherlink.com 1.10,2013-02-19 07:54:00,
2013-02-19 03:08:00,45.7,45.0,30.20,SE,131,0.0,0.0,98,0.00,,,0.00,weatherlink.com 1.10,2013-02-19 08:08:00,
2013-02-19 03:23:00,46.1,45.0,30.20,SE,131,0.0,0.0,97,0.00,,,0.00,weatherlink.com 1.10,2013-02-19 08:23:00,
2013-02-19 03:38:00,46.4,46.0,30.19,SE,131,0.0,0.0,98,0.00,,,0.00,weatherlink.com 1.10,2013-02-19 08:38:00,
2013-02-19 03:53:00,47.5,47.0,30.19,SE,131,0.0,0.0,98,0.00,,,0.00,weatherlink.com 1.10,2013-02-19 08:53:00,
2013-02-19 04:09:00,47.5,47.0,30.18,SE,131,0.0,0.0,98,0.00,,,0.00,weatherlink.com 1.10,2013-02-19 09:09:00,
2013-02-19 04:39:00,47.2,46.0,30.17,SE,131,0.0,0.0,97,0.00,,,0.00,weatherlink.com 1.10,2013-02-19 09:39:00,
2013-02-19 04:53:00,46.7,46.0,30.17,SE,131,0.0,0.0,97,0.00,,,0.00,weatherlink.com 1.10,2013-02-19 09:53:00,
2013-02-19 05:08:00,46.3,46.0,30.18,SE,131,0.0,0.0,97,0.00,,,0.00,weatherlink.com 1.10,2013-02-19 10:08:00,
2013-02-19 05:23:00,46.2,45.0,30.18,SE,131,0.0,0.0,97,0.00,,,0.00,weatherlink.com 1.10,2013-02-19 10:23:00,
2013-02-19 05:39:00,46.9,46.0,30.17,SE,131,0.0,1.0,98,0.00,,,0.00,weatherlink.com 1.10,2013-02-19 10:39:00,
2013-02-19 05:54:00,46.5,46.0,30.17,SE,131,0.0,0.0,97,0.00,,,0.00,weatherlink.com 1.10,2013-02-19 10:54:00,
2013-02-19 06:09:00,46.7,46.0,30.17,NNE,23,0.0,1.0,98,0.00,,,0.00,weatherlink.com 1.10,2013-02-19 11:09:00,
2013-02-19 06:24:00,46.9,46.0,30.17,NNE,30,0.0,1.0,98,0.00,,,0.00,weatherlink.com 1.10,2013-02-19 11:24:00,
2013-02-19 06:39:00,46.8,46.0,30.18,NNE,27,0.0,0.0,98,0.00,,,0.00,weatherlink.com 1.10,2013-02-19 11:39:00,
2013-02-19 06:54:00,47.1,47.0,30.17,NNE,26,0.0,1.0,98,0.00,,,0.00,weatherlink.com 1.10,2013-02-19 11:54:00,
2013-02-19 07:09:00,46.7,46.0,30.17,NNE,26,0.0,0.0,98,0.00,,,0.00,weatherlink.com 1.10,2013-02-19 12:09:00,
2013-02-19 07:24:00,46.9,46.0,30.17,NNE,26,0.0,0.0,98,0.00,,,0.00,weatherlink.com 1.10,2013-02-19 12:24:00,
2013-02-19 07:39:00,48.4,48.0,30.18,NNE,26,0.0,0.0,99,0.00,,,0.00,weatherlink.com 1.10,2013-02-19 12:39:00,
2013-02-19 07:54:00,50.1,50.0,30.18,NNE,26,0.0,0.0,99,0.00,,,0.00,weatherlink.com 1.10,2013-02-19 12:54:00,
2013-02-19 08:09:00,52.3,52.0,30.18,NNE,26,0.0,1.0,99,0.00,,,0.00,weatherlink.com 1.10,2013-02-19 13:09:00,
2013-02-19 08:24:00,53.7,54.0,30.18,ESE,103,0.0,0.0,99,0.00,,,0.00,weatherlink.com 1.10,2013-02-19 13:24:00,
2013-02-19 08:39:00,55.5,55.0,30.18,ENE,67,1.0,2.0,98,0.00,,,0.00,weatherlink.com 1.10,2013-02-19 13:39:00,
2013-02-19 08:54:00,57.6,57.0,30.19,SSE,156,1.0,3.0,97,0.00,,,0.00,weatherlink.com 1.10,2013-02-19 13:54:00,
2013-02-19 09:09:00,59.7,59.0,30.20,SSE,158,0.0,3.0,96,0.00,,,0.00,weatherlink.com 1.10,2013-02-19 14:09:00,
2013-02-19 09:24:00,62.4,60.0,30.19,SE,138,3.0,8.0,92,0.00,,,0.00,weatherlink.com 1.10,2013-02-19 14:24:00,
2013-02-19 09:40:00,66.1,59.0,30.19,SE,130,4.0,8.0,77,0.00,,,0.00,weatherlink.com 1.10,2013-02-19 14:40:00,
2013-02-19 09:54:00,68.3,59.0,30.19,SSE,161,4.0,8.0,71,0.00,,,0.00,weatherlink.com 1.10,2013-02-19 14:54:00,
2013-02-19 10:09:00,70.1,58.0,30.19,SSW,204,6.0,14.0,66,0.00,,,0.00,weatherlink.com 1.10,2013-02-19 15:09:00,
2013-02-19 10:24:00,71.1,57.0,30.20,South,179,6.0,10.0,61,0.00,,,0.00,weatherlink.com 1.10,2013-02-19 15:24:00,
2013-02-19 10:40:00,72.6,56.0,30.20,SE,138,6.0,11.0,57,0.00,,,0.00,weatherlink.com 1.10,2013-02-19 15:40:00,
2013-02-19 10:55:00,73.3,56.0,30.19,South,190,7.0,11.0,55,0.00,,,0.00,weatherlink.com 1.10,2013-02-19 15:55:00,
2013-02-19 11:10:00,73.9,57.0,30.19,SE,124,5.0,12.0,56,0.00,,,0.00,weatherlink.com 1.10,2013-02-19 16:10:00,
2013-02-19 11:25:00,73.8,57.0,30.18,SSW,211,1.0,12.0,57,0.00,,,0.00,weatherlink.com 1.10,2013-02-19 16:25:00,
2013-02-19 11:40:00,74.9,56.0,30.18,SSW,194,8.0,10.0,53,0.00,,,0.00,weatherlink.com 1.10,2013-02-19 16:40:00,
2013-02-19 11:55:00,75.0,57.0,30.18,SSE,162,3.0,8.0,53,0.00,,,0.00,weatherlink.com 1.10,2013-02-19 16:55:00,
2013-02-19 12:10:00,76.0,56.0,30.17,SE,130,3.0,8.0,50,0.00,,,0.00,weatherlink.com 1.10,2013-02-19 17:10:00,
2013-02-19 12:25:00,76.0,56.0,30.17,WSW,249,2.0,11.0,51,0.00,,,0.00,weatherlink.com 1.10,2013-02-19 17:25:00,
2013-02-19 12:40:00,76.5,56.0,30.16,WSW,255,1.0,8.0,49,0.00,,,0.00,weatherlink.com 1.10,2013-02-19 17:40:00,
2013-02-19 12:55:00,77.5,56.0,30.15,SW,217,5.0,11.0,48,0.00,,,0.00,weatherlink.com 1.10,2013-02-19 17:55:00,
2013-02-19 13:10:00,77.7,56.0,30.13,SW,228,1.0,12.0,48,0.00,,,0.00,weatherlink.com 1.10,2013-02-19 18:10:00,
2013-02-19 13:25:00,78.3,56.0,30.12,WSW,257,1.0,8.0,47,0.00,,,0.00,weatherlink.com 1.10,2013-02-19 18:25:00,
2013-02-19 13:40:00,78.9,57.0,30.12,SSE,149,10.0,10.0,48,0.00,,,0.00,weatherlink.com 1.10,2013-02-19 18:40:00,
2013-02-19 13:55:00,78.9,56.0,30.11,SSW,203,2.0,9.0,46,0.00,,,0.00,weatherlink.com 1.10,2013-02-19 18:55:00,
2013-02-19 14:10:00,77.5,56.0,30.11,WNW,290,7.0,7.0,47,0.00,,,0.00,weatherlink.com 1.10,2013-02-19 19:10:00,
2013-02-19 14:40:00,78.9,56.0,30.10,SW,234,2.0,10.0,45,0.00,,,0.00,weatherlink.com 1.10,2013-02-19 19:40:00,
2013-02-19 14:55:00,77.8,56.0,30.09,West,260,3.0,8.0,48,0.00,,,0.00,weatherlink.com 1.10,2013-02-19 19:55:00,
2013-02-19 15:10:00,77.4,56.0,30.09,West,260,3.0,8.0,47,0.00,,,0.00,weatherlink.com 1.10,2013-02-19 20:10:00,
2013-02-19 15:25:00,78.8,56.0,30.09,West,262,1.0,10.0,45,0.00,,,0.00,weatherlink.com 1.10,2013-02-19 20:25:00,
2013-02-19 15:40:00,77.7,56.0,30.09,WSW,252,7.0,15.0,47,0.00,,,0.00,weatherlink.com 1.10,2013-02-19 20:40:00,
2013-02-19 15:55:00,77.1,56.0,30.08,WSW,250,2.0,10.0,48,0.00,,,0.00,weatherlink.com 1.10,2013-02-19 20:55:00,
2013-02-19 16:10:00,77.5,56.0,30.08,West,263,8.0,9.0,48,0.00,,,0.00,weatherlink.com 1.10,2013-02-19 21:10:00,
2013-02-19 16:26:00,76.2,56.0,30.08,WNW,291,6.0,11.0,49,0.00,,,0.00,weatherlink.com 1.10,2013-02-19 21:26:00,
2013-02-19 16:40:00,76.1,55.0,30.08,SW,234,3.0,9.0,49,0.00,,,0.00,weatherlink.com 1.10,2013-02-19 21:40:00,
2013-02-19 16:55:00,76.0,55.0,30.08,West,262,5.0,10.0,49,0.00,,,0.00,weatherlink.com 1.10,2013-02-19 21:55:00,
2013-02-19 17:10:00,75.1,55.0,30.08,WNW,288,9.0,11.0,49,0.00,,,0.00,weatherlink.com 1.10,2013-02-19 22:10:00,
2013-02-19 17:25:00,74.6,54.0,30.09,West,273,3.0,13.0,49,0.00,,,0.00,weatherlink.com 1.10,2013-02-19 22:25:00,
2013-02-19 17:40:00,74.0,55.0,30.09,WNW,284,4.0,7.0,51,0.00,,,0.00,weatherlink.com 1.10,2013-02-19 22:40:00,
2013-02-19 17:55:00,73.3,54.0,30.09,SW,231,1.0,6.0,52,0.00,,,0.00,weatherlink.com 1.10,2013-02-19 22:55:00,
2013-02-19 18:11:00,72.4,55.0,30.10,WSW,240,1.0,4.0,54,0.00,,,0.00,weatherlink.com 1.10,2013-02-19 23:11:00,
2013-02-19 18:26:00,71.5,55.0,30.10,West,264,0.0,6.0,56,0.00,,,0.00,weatherlink.com 1.10,2013-02-19 23:26:00,
2013-02-19 18:40:00,70.5,55.0,30.10,WSW,256,0.0,3.0,58,0.00,,,0.00,weatherlink.com 1.10,2013-02-19 23:40:00,
2013-02-19 18:56:00,69.3,55.0,30.10,West,264,0.0,1.0,60,0.00,,,0.00,weatherlink.com 1.10,2013-02-19 23:56:00,
2013-02-19 19:10:00,67.6,54.0,30.10,West,264,0.0,0.0,63,0.00,,,0.00,weatherlink.com 1.10,2013-02-20 00:10:00,
2013-02-19 19:26:00,65.9,54.0,30.10,West,264,0.0,0.0,66,0.00,,,0.00,weatherlink.com 1.10,2013-02-20 00:26:00,
2013-02-19 19:40:00,65.1,54.0,30.10,West,264,0.0,1.0,68,0.00,,,0.00,weatherlink.com 1.10,2013-02-20 00:40:00,
2013-02-19 19:56:00,64.3,54.0,30.10,West,264,0.0,0.0,69,0.00,,,0.00,weatherlink.com 1.10,2013-02-20 00:56:00,
2013-02-19 20:11:00,63.0,54.0,30.11,West,264,0.0,0.0,73,0.00,,,0.00,weatherlink.com 1.10,2013-02-20 01:11:00,
2013-02-19 20:26:00,62.0,54.0,30.11,West,264,0.0,0.0,76,0.00,,,0.00,weatherlink.com 1.10,2013-02-20 01:26:00,
2013-02-19 20:41:00,61.5,54.0,30.12,West,264,0.0,0.0,76,0.00,,,0.00,weatherlink.com 1.10,2013-02-20 01:41:00,
2013-02-19 20:56:00,60.7,55.0,30.11,West,264,0.0,0.0,80,0.00,,,0.00,weatherlink.com 1.10,2013-02-20 01:56:00,
2013-02-19 21:11:00,60.1,54.0,30.11,West,264,0.0,0.0,81,0.00,,,0.00,weatherlink.com 1.10,2013-02-20 02:11:00,
2013-02-19 21:26:00,59.5,54.0,30.12,West,264,0.0,0.0,83,0.00,,,0.00,weatherlink.com 1.10,2013-02-20 02:26:00,
2013-02-19 21:41:00,60.7,56.0,30.11,SE,137,0.0,1.0,83,0.00,,,0.00,weatherlink.com 1.10,2013-02-20 02:41:00,
2013-02-19 21:56:00,60.6,55.0,30.11,SE,137,0.0,0.0,83,0.00,,,0.00,weatherlink.com 1.10,2013-02-20 02:56:00,
2013-02-19 22:11:00,60.4,56.0,30.11,SE,138,0.0,0.0,86,0.00,,,0.00,weatherlink.com 1.10,2013-02-20 03:11:00,
2013-02-19 22:26:00,61.6,58.0,30.11,SW,222,0.0,0.0,88,0.00,,,0.00,weatherlink.com 1.10,2013-02-20 03:26:00,
2013-02-19 22:44:00,60.9,57.0,30.10,SW,228,0.0,0.0,88,0.00,,,0.00,weatherlink.com 1.10,2013-02-20 03:44:00,
2013-02-19 22:56:00,62.0,59.0,30.11,SW,227,0.0,1.0,91,0.00,,,0.00,weatherlink.com 1.10,2013-02-20 03:56:00,
2013-02-19 23:11:00,63.0,60.0,30.10,SW,224,0.0,2.0,91,0.00,,,0.00,weatherlink.com 1.10,2013-02-20 04:11:00,
2013-02-19 23:26:00,63.3,61.0,30.09,SSW,204,0.0,0.0,91,0.00,,,0.00,weatherlink.com 1.10,2013-02-20 04:26:00,
2013-02-19 23:41:00,63.2,61.0,30.09,SW,221,0.0,0.0,91,0.00,,,0.00,weatherlink.com 1.10,2013-02-20 04:41:00,
2013-02-19 23:56:00,62.8,61.0,30.09,SW,218,0.0,0.0,92,0.00,,,0.00,weatherlink.com 1.10,2013-02-20 04:56:00,